Home   Weather   Miskolc   Past weeks

Flag for Hungary Past Weather in Miskolc, Hungary — Yesterday and Last 2 Weeks

56 °F


Feels Like: 55 °F
Forecast: 35 / 50 °F
Wind: 5 mph from Northeast

Location: Miskolc

Current Time: Oct 26, 2016 at 3:34:12 PM

Latest Report: Oct 26, 2016 at 2:00 PM

Visibility: 19 mi

Pressure: 30.24 "Hg

Humidity: 60%

Dew Point: 42 °F

Location of MiskolcLocation

Past Weather in Miskolc — Graph


Miskolc Temperature Yesterday

Maximum temperature yesterday: 58 °F (at 5:00 PM)
Minimum temperature yesterday: 54 °F (at 8:00 AM)
Average temperature yesterday: 56 °F

High & Low Weather Summary for the Past Weeks

High60 °F (Oct 15, 3:00 PM)94% (Oct 22, 1:00 AM)30.44 "Hg (Oct 22, 1:00 AM)
Low34 °F (Oct 14, 7:00 AM)44% (Oct 22, 4:00 PM)29.81 "Hg (Oct 12, 3:00 PM)
Average49 °F84%30.14 "Hg
* Reported Oct 11 2:00 PM — Oct 26 2:00 PM, Miskolc, Weather by CustomWeather, © 2016

Note: Actual official high and low records may vary slightly from our data, if they occured in-between our weather recording intervals... More about our weather records


Miskolc Weather History for the Previous 24 Hours

Scroll right to see more
Time TempWeatherWind HumidityBarometerVisibility
2:00 PM
Wed, Oct 26
56 °FOvercast.5 mph60%30.24 "Hg19 mi
1:00 PM56 °FPartly sunny.5 mph60%30.24 "Hg25 mi
12:00 PM56 °FScattered clouds.5 mph65%30.24 "Hg25 mi
11:00 AM54 °FOvercast.3 mph75%30.23 "Hg19 mi
10:00 AM53 °FOvercast.2 mph84%30.22 "Hg12 mi
9:00 AM53 °FOvercast.2 mph88%30.20 "Hg6 mi
8:00 AM53 °FOvercast.1 mph89%30.17 "Hg4 mi
7:00 AM54 °FDrizzle. Overcast.1 mph92%30.14 "Hg1 mi
6:00 AM54 °FDrizzle. Overcast.No wind93%30.14 "Hg1 mi
5:00 AM54 °FCool.1 mph93%30.14 "HgN/A
4:00 AM54 °FDrizzle. Overcast.2 mph93%30.14 "Hg1 mi
3:00 AM54 °FDrizzle. Overcast.1 mph93%30.14 "Hg1 mi
2:00 AM54 °FLight rain. Overcast.No wind92%30.15 "Hg1 mi
1:00 AM54 °FLight rain. Overcast.No wind91%30.15 "Hg4 mi
12:00 AM54 °FLight rain. Overcast.No wind90%30.16 "Hg4 mi
11:00 PM
Tue, Oct 25
55 °FOvercast.No wind89%30.16 "Hg4 mi
10:00 PM55 °FOvercast.No wind89%30.17 "Hg4 mi
9:00 PM55 °FOvercast.No wind89%30.18 "Hg5 mi
8:00 PM55 °FOvercast.No wind88%30.17 "Hg9 mi
7:00 PM57 °FOvercast.No wind84%30.18 "Hg9 mi
6:00 PM58 °FOvercast.No wind82%30.17 "Hg9 mi
5:00 PM58 °FOvercast.1 mph80%30.16 "Hg9 mi
4:00 PM58 °FOvercast.2 mph80%30.17 "Hg12 mi
3:00 PM58 °FOvercast.3 mph79%30.18 "Hg11 mi
Weather by CustomWeather, © 2016

See weather overviewHow to use our weather pages